Location: Dzierzno
(50.6159°N, 19.2852°E)
Time: 23:49:28
(UTC+00:00)

Cosmos 1862 - Pass Details

Date: 18 November 2025
Orbit: 473 x 486 km, 82.5° (Epoch: 04 December)

Event Time Altitude Azimuth Distance (km) Brightness Sun altitude
Rises 16:14:22 0° 356° (N) 2,544 6.6 -12.7°
Reaches altitude 10° 16:16:34 10° 4° (N) 1,662 5.6 -13.1°
Maximum altitude 16:19:59 37° 74° (ENE) 757 3.5 -13.6°
Drops below altitude 10° 16:23:22 10° 144° (SE) 1,657 5.5 -14.1°
Sets 16:25:34 0° 152° (SSE) 2,534 6.6 -14.5°
